ZUFHF FYKM-FBSK

Flight info

Callsign ZUFHF
Flight time N/A
Altitude 12000
Route TILOP W95 UNLUV/N0242F140 W95 UNGIG/N0241F130 DCT AKUTA UVBIX2C
Aircraft YS11/M-SDFHY/C

Departure

Time 2026-03-27 16:25
Airport Katima Mulilo Airport (FYKM)

Arrival

Time N/A
Airport Sir Seretse Khama International Airport (FBSK)
Time Latitude Longitude Altitude Speed Heading
2026-03-27 16:14 -17.63188 24.17738 3143 ft 0 kts 277°
2026-03-27 16:19 -17.63188 24.17736 3143 ft 1 kts 261°
2026-03-27 16:19 -17.63199 24.17728 3138 ft 3 kts 202°
2026-03-27 16:19 -17.63219 24.17718 3145 ft 4 kts 226°
2026-03-27 16:20 -17.63233 24.17671 3144 ft 8 kts 259°
2026-03-27 16:20 -17.63244 24.17608 3144 ft 9 kts 259°
2026-03-27 16:20 -17.63257 24.17539 3145 ft 10 kts 259°
2026-03-27 16:20 -17.63270 24.17470 3145 ft 9 kts 259°
2026-03-27 16:21 -17.63306 24.17429 3146 ft 8 kts 181°
2026-03-27 16:21 -17.63349 24.17431 3146 ft 5 kts 189°
2026-03-27 16:21 -17.63373 24.17398 3146 ft 8 kts 256°
2026-03-27 16:21 -17.63388 24.17306 3147 ft 18 kts 261°
2026-03-27 16:22 -17.63410 24.17164 3148 ft 21 kts 260°
2026-03-27 16:22 -17.63434 24.17026 3149 ft 17 kts 260°
2026-03-27 16:22 -17.63453 24.16911 3150 ft 15 kts 260°
2026-03-27 16:22 -17.63469 24.16813 3151 ft 13 kts 260°
2026-03-27 16:23 -17.63489 24.16699 3152 ft 15 kts 259°
2026-03-27 16:23 -17.63527 24.16615 3153 ft 11 kts 185°
2026-03-27 16:23 -17.63582 24.16624 3155 ft 6 kts 148°
2026-03-27 16:23 -17.63588 24.16643 3154 ft 2 kts 82°
2026-03-27 16:24 -17.63587 24.16649 3154 ft 0 kts 81°
2026-03-27 16:24 -17.63583 24.16679 3154 ft 28 kts 81°
2026-03-27 16:24 -17.63505 24.17164 3148 ft 97 kts 80°
2026-03-27 16:25 -17.63371 24.17980 3162 ft 131 kts 81°
2026-03-27 16:25 -17.63209 24.19001 3349 ft 151 kts 81°
2026-03-27 16:25 -17.63399 24.21390 3912 ft 187 kts 113°
2026-03-27 16:26 -17.64067 24.22470 4669 ft 172 kts 127°
2026-03-27 16:26 -17.64899 24.23418 5006 ft 183 kts 131°
2026-03-27 16:26 -17.65800 24.24390 5323 ft 189 kts 132°
2026-03-27 16:26 -17.66715 24.25390 5667 ft 190 kts 131°
2026-03-27 16:27 -17.67622 24.26401 6059 ft 190 kts 129°
2026-03-27 16:27 -17.68434 24.27493 6437 ft 191 kts 134°
2026-03-27 16:27 -17.69462 24.28359 6825 ft 191 kts 140°
2026-03-27 16:27 -17.70519 24.29214 7244 ft 191 kts 139°
2026-03-27 16:28 -17.71526 24.30119 7666 ft 191 kts 135°
2026-03-27 16:28 -17.72481 24.31099 8104 ft 191 kts 132°
2026-03-27 16:28 -17.73393 24.32115 8543 ft 191 kts 130°
2026-03-27 16:28 -17.74279 24.33134 8964 ft 191 kts 130°
2026-03-27 16:29 -17.75139 24.34198 9402 ft 191 kts 125°
2026-03-27 16:29 -17.75902 24.35355 9847 ft 191 kts 122°
2026-03-27 16:29 -17.76655 24.36496 10257 ft 192 kts 124°
2026-03-27 16:29 -17.77479 24.37617 10661 ft 194 kts 126°
2026-03-27 16:30 -17.78302 24.38741 11080 ft 196 kts 124°
2026-03-27 16:30 -17.79106 24.39913 11505 ft 198 kts 123°
2026-03-27 16:30 -17.79916 24.41092 11936 ft 200 kts 124°
2026-03-27 16:30 -17.80752 24.42261 12361 ft 203 kts 125°
2026-03-27 16:31 -17.81607 24.43456 12815 ft 205 kts 125°
2026-03-27 16:31 -17.82461 24.44678 13261 ft 208 kts 124°
2026-03-27 16:31 -17.83310 24.45899 13712 ft 210 kts 124°
2026-03-27 16:31 -17.84188 24.47141 14139 ft 211 kts 125°
2026-03-27 16:32 -17.85061 24.48372 14534 ft 213 kts 124°
2026-03-27 16:32 -17.85941 24.49627 14952 ft 214 kts 124°
2026-03-27 16:32 -17.86824 24.50891 15370 ft 214 kts 124°
2026-03-27 16:32 -17.87714 24.52154 15807 ft 215 kts 124°
2026-03-27 16:33 -17.88599 24.53408 16216 ft 216 kts 124°
2026-03-27 16:33 -17.89495 24.54684 16659 ft 217 kts 124°
2026-03-27 16:33 -17.90395 24.55970 17105 ft 218 kts 123°
2026-03-27 16:33 -17.91294 24.57247 17554 ft 220 kts 123°
2026-03-27 16:34 -17.92202 24.58537 18007 ft 221 kts 123°
2026-03-27 16:34 -17.93118 24.59844 18453 ft 223 kts 123°
2026-03-27 16:34 -17.94042 24.61163 18863 ft 224 kts 123°
2026-03-27 16:34 -17.94972 24.62487 19262 ft 226 kts 123°
2026-03-27 16:35 -17.95900 24.63808 19670 ft 227 kts 123°
2026-03-27 16:35 -17.96846 24.65157 20087 ft 229 kts 123°
2026-03-27 16:35 -17.97798 24.66516 20511 ft 231 kts 123°
2026-03-27 16:35 -17.98743 24.67863 20929 ft 232 kts 123°
2026-03-27 16:36 -17.99706 24.69237 21355 ft 234 kts 123°
2026-03-27 16:36 -18.00676 24.70621 21813 ft 236 kts 123°
2026-03-27 16:36 -18.01655 24.72018 22255 ft 237 kts 123°
2026-03-27 16:36 -18.02638 24.73420 22706 ft 238 kts 123°
2026-03-27 16:37 -18.03624 24.74827 23165 ft 239 kts 123°
2026-03-27 16:37 -18.04610 24.76235 23631 ft 239 kts 123°
2026-03-27 16:37 -18.05583 24.77626 23939 ft 243 kts 123°
2026-03-27 16:37 -18.06640 24.79144 23478 ft 270 kts 123°
2026-03-27 16:38 -18.07790 24.80785 22611 ft 285 kts 124°
2026-03-27 16:38 -18.08984 24.82477 21618 ft 288 kts 124°
2026-03-27 16:38 -18.10175 24.84183 20650 ft 289 kts 124°
2026-03-27 16:38 -18.11351 24.85874 19677 ft 290 kts 124°
2026-03-27 16:39 -18.12553 24.87588 18693 ft 290 kts 124°
2026-03-27 16:39 -18.13752 24.89296 17630 ft 290 kts 124°
2026-03-27 16:39 -18.14926 24.90986 16560 ft 290 kts 124°
2026-03-27 16:39 -18.16108 24.92680 15527 ft 290 kts 125°
2026-03-27 16:40 -18.17311 24.94394 14504 ft 289 kts 125°
2026-03-27 16:40 -18.18489 24.96082 13918 ft 279 kts 125°
2026-03-27 16:40 -18.19603 24.97680 14004 ft 265 kts 125°
2026-03-27 16:40 -18.20327 24.98717 14039 ft 264 kts 125°
2026-03-27 16:41 -18.21419 25.00280 14068 ft 263 kts 125°
2026-03-27 16:41 -18.22493 25.01822 14086 ft 263 kts 125°
2026-03-27 16:41 -18.23581 25.03382 14098 ft 264 kts 125°
2026-03-27 16:41 -18.24660 25.04929 14105 ft 264 kts 125°
2026-03-27 16:42 -18.25750 25.06493 14105 ft 264 kts 125°
2026-03-27 16:42 -18.26839 25.08055 14109 ft 264 kts 125°
2026-03-27 16:42 -18.27927 25.09616 14110 ft 264 kts 125°
2026-03-27 16:43 -18.30096 25.12731 14111 ft 264 kts 125°
2026-03-27 16:43 -18.31186 25.14294 14110 ft 265 kts 125°
2026-03-27 16:43 -18.32277 25.15863 14116 ft 265 kts 125°
2026-03-27 16:43 -18.33364 25.17426 14118 ft 265 kts 125°
2026-03-27 16:44 -18.34440 25.18972 14121 ft 265 kts 125°
2026-03-27 16:44 -18.35590 25.20489 14112 ft 265 kts 131°
2026-03-27 16:44 -18.37006 25.21743 14097 ft 268 kts 149°
2026-03-27 16:44 -18.38812 25.22239 14095 ft 272 kts 174°
2026-03-27 16:45 -18.40710 25.22228 14115 ft 273 kts 180°
2026-03-27 16:45 -18.42504 25.22155 14118 ft 273 kts 180°
2026-03-27 16:45 -18.44380 25.22092 14112 ft 273 kts 179°
2026-03-27 16:45 -18.46283 25.22045 14116 ft 272 kts 179°
2026-03-27 16:46 -18.48185 25.22011 14117 ft 272 kts 178°
2026-03-27 16:46 -18.50051 25.22133 14113 ft 271 kts 171°
2026-03-27 16:46 -18.51923 25.22385 14114 ft 271 kts 171°
2026-03-27 16:46 -18.53813 25.22533 14116 ft 272 kts 175°
2026-03-27 16:47 -18.55711 25.22643 14116 ft 271 kts 173°
2026-03-27 16:47 -18.57564 25.22841 14115 ft 271 kts 171°
2026-03-27 16:47 -18.59453 25.23024 14119 ft 272 kts 173°
2026-03-27 16:47 -18.61324 25.23150 14117 ft 272 kts 174°
2026-03-27 16:48 -18.63224 25.23312 14116 ft 271 kts 172°
2026-03-27 16:48 -18.65091 25.23501 14107 ft 271 kts 173°
2026-03-27 16:48 -18.66979 25.23655 14113 ft 272 kts 174°
2026-03-27 16:48 -18.68854 25.23798 14112 ft 272 kts 173°
2026-03-27 16:49 -18.70745 25.23974 14113 ft 271 kts 172°
2026-03-27 16:49 -18.72632 25.24147 14113 ft 271 kts 173°
2026-03-27 16:49 -18.74520 25.24298 14109 ft 271 kts 173°
2026-03-27 16:49 -18.76386 25.24454 14111 ft 271 kts 173°
2026-03-27 16:50 -18.78270 25.24627 14107 ft 271 kts 173°
2026-03-27 16:50 -18.80159 25.24791 14110 ft 271 kts 173°
2026-03-27 16:50 -18.82026 25.24944 14105 ft 271 kts 173°
2026-03-27 16:50 -18.83922 25.25109 14106 ft 271 kts 173°
2026-03-27 16:51 -18.85780 25.25275 14100 ft 271 kts 173°
2026-03-27 16:51 -18.87675 25.25436 14102 ft 271 kts 173°
2026-03-27 16:51 -18.89562 25.25596 14103 ft 271 kts 173°
2026-03-27 16:51 -18.91274 25.25746 14103 ft 271 kts 173°
2026-03-27 16:52 -18.93220 25.25917 14104 ft 272 kts 173°
2026-03-27 16:52 -18.95109 25.26078 14101 ft 272 kts 173°
2026-03-27 16:52 -18.96975 25.26238 14101 ft 272 kts 173°
2026-03-27 16:52 -18.98861 25.26403 14101 ft 272 kts 173°
2026-03-27 16:53 -19.00760 25.26567 14093 ft 272 kts 173°
2026-03-27 16:53 -19.02652 25.26730 14096 ft 272 kts 173°
2026-03-27 16:53 -19.04543 25.26894 14101 ft 272 kts 173°
2026-03-27 16:53 -19.06409 25.27056 14097 ft 272 kts 173°
2026-03-27 16:54 -19.08305 25.27220 14095 ft 272 kts 173°
2026-03-27 16:54 -19.10200 25.27384 14095 ft 272 kts 173°
2026-03-27 16:54 -19.12095 25.27549 14091 ft 273 kts 173°
2026-03-27 16:54 -19.13975 25.27711 14095 ft 273 kts 173°
2026-03-27 16:55 -19.15875 25.27876 14098 ft 273 kts 173°
2026-03-27 16:55 -19.17774 25.28041 14100 ft 273 kts 173°
2026-03-27 16:55 -19.19656 25.28204 14103 ft 273 kts 173°
2026-03-27 16:55 -19.21562 25.28369 14097 ft 274 kts 173°
2026-03-27 16:56 -19.23438 25.28532 14098 ft 274 kts 173°
2026-03-27 16:56 -19.25348 25.28698 14097 ft 274 kts 173°
2026-03-27 16:56 -19.27254 25.28863 14096 ft 273 kts 173°
2026-03-27 16:56 -19.29149 25.29027 14097 ft 273 kts 173°
2026-03-27 16:57 -19.31024 25.29191 14095 ft 273 kts 173°
2026-03-27 16:57 -19.32924 25.29356 14083 ft 273 kts 173°
2026-03-27 16:57 -19.34830 25.29521 14090 ft 273 kts 173°
2026-03-27 16:57 -19.36729 25.29686 14082 ft 273 kts 173°
2026-03-27 16:58 -19.38615 25.29850 14089 ft 273 kts 173°
2026-03-27 16:58 -19.40510 25.30015 14077 ft 273 kts 173°
2026-03-27 16:58 -19.42408 25.30180 14086 ft 273 kts 173°
2026-03-27 16:58 -19.44305 25.30345 14088 ft 273 kts 173°
2026-03-27 16:59 -19.46204 25.30510 14090 ft 273 kts 173°
2026-03-27 16:59 -19.48082 25.30674 14086 ft 273 kts 173°
2026-03-27 16:59 -19.49980 25.30838 14086 ft 273 kts 173°
2026-03-27 16:59 -19.51884 25.31004 14086 ft 273 kts 173°
2026-03-27 17:00 -19.53784 25.31162 14078 ft 273 kts 173°
2026-03-27 17:00 -19.55673 25.31319 14074 ft 273 kts 173°
2026-03-27 17:00 -19.57575 25.31483 14082 ft 273 kts 173°
2026-03-27 17:00 -19.59477 25.31646 14079 ft 273 kts 173°
2026-03-27 17:01 -19.61357 25.31802 14077 ft 273 kts 173°
2026-03-27 17:01 -19.63267 25.31964 14077 ft 273 kts 173°
2026-03-27 17:01 -19.65152 25.32126 14070 ft 273 kts 173°
2026-03-27 17:01 -19.67060 25.32287 14077 ft 273 kts 173°
2026-03-27 17:02 -19.68933 25.32445 14063 ft 273 kts 173°
2026-03-27 17:02 -19.70838 25.32607 14069 ft 273 kts 173°
2026-03-27 17:02 -19.72744 25.32769 14071 ft 273 kts 173°
2026-03-27 17:02 -19.74618 25.32927 14071 ft 273 kts 173°
2026-03-27 17:03 -19.76522 25.33089 14068 ft 273 kts 173°
2026-03-27 17:03 -19.78404 25.33249 14067 ft 273 kts 173°
2026-03-27 17:03 -19.80317 25.33411 14055 ft 273 kts 173°
2026-03-27 17:03 -19.82215 25.33572 14063 ft 273 kts 173°
2026-03-27 17:04 -19.84117 25.33734 14063 ft 273 kts 173°
2026-03-27 17:04 -19.85998 25.33894 14061 ft 273 kts 173°
2026-03-27 17:04 -19.87902 25.34055 14014 ft 274 kts 173°
2026-03-27 17:04 -19.89813 25.34219 14040 ft 274 kts 173°
2026-03-27 17:05 -19.91703 25.34379 14049 ft 275 kts 173°
2026-03-27 17:05 -19.93621 25.34541 14051 ft 275 kts 173°
2026-03-27 17:05 -19.95510 25.34702 14055 ft 275 kts 173°
2026-03-27 17:05 -19.97435 25.34867 14055 ft 275 kts 173°
2026-03-27 17:06 -19.99324 25.35026 14049 ft 275 kts 173°
2026-03-27 17:06 -20.01240 25.35190 14050 ft 275 kts 173°
2026-03-27 17:06 -20.03149 25.35353 14050 ft 275 kts 173°
2026-03-27 17:06 -20.05063 25.35515 14049 ft 275 kts 173°
2026-03-27 17:07 -20.06979 25.35678 14050 ft 275 kts 173°
2026-03-27 17:07 -20.08862 25.35840 14050 ft 275 kts 173°
2026-03-27 17:07 -20.10791 25.36004 14047 ft 275 kts 173°
2026-03-27 17:07 -20.12580 25.36155 14048 ft 275 kts 173°
2026-03-27 17:08 -20.14493 25.36319 14047 ft 275 kts 173°
2026-03-27 17:08 -20.16403 25.36482 14044 ft 275 kts 173°
2026-03-27 17:08 -20.18312 25.36645 14041 ft 275 kts 173°
2026-03-27 17:08 -20.20208 25.36806 14044 ft 275 kts 173°
2026-03-27 17:09 -20.22123 25.36970 14037 ft 275 kts 173°
2026-03-27 17:09 -20.24009 25.37131 14043 ft 274 kts 173°
2026-03-27 17:09 -20.25914 25.37293 14037 ft 275 kts 173°
2026-03-27 17:09 -20.27828 25.37457 14037 ft 275 kts 173°
2026-03-27 17:10 -20.29715 25.37619 14037 ft 275 kts 173°
2026-03-27 17:10 -20.31627 25.37782 14034 ft 275 kts 173°
2026-03-27 17:10 -20.33542 25.37945 14035 ft 275 kts 173°
2026-03-27 17:10 -20.35428 25.38107 14031 ft 275 kts 173°
2026-03-27 17:11 -20.37340 25.38270 14032 ft 275 kts 173°
2026-03-27 17:11 -20.39247 25.38433 14030 ft 275 kts 173°
2026-03-27 17:11 -20.41150 25.38596 14030 ft 275 kts 173°
2026-03-27 17:11 -20.43060 25.38760 14030 ft 275 kts 174°
2026-03-27 17:12 -20.44981 25.38924 14028 ft 275 kts 174°
2026-03-27 17:12 -20.46872 25.39086 14027 ft 275 kts 174°
2026-03-27 17:12 -20.48788 25.39250 14022 ft 275 kts 174°
2026-03-27 17:12 -20.50700 25.39414 14023 ft 276 kts 174°
2026-03-27 17:13 -20.52622 25.39578 14022 ft 276 kts 174°
2026-03-27 17:13 -20.54535 25.39742 14021 ft 276 kts 174°
2026-03-27 17:13 -20.56438 25.39906 14023 ft 276 kts 174°
2026-03-27 17:13 -20.58341 25.40072 14019 ft 276 kts 173°
2026-03-27 17:14 -20.60250 25.40275 14019 ft 276 kts 172°
2026-03-27 17:14 -20.62166 25.40484 14020 ft 276 kts 173°
2026-03-27 17:14 -20.64087 25.40663 14019 ft 276 kts 174°
2026-03-27 17:14 -20.65988 25.40846 14015 ft 276 kts 173°
2026-03-27 17:15 -20.67908 25.41052 14016 ft 276 kts 173°
2026-03-27 17:15 -20.69802 25.41245 14016 ft 276 kts 173°
2026-03-27 17:15 -20.71726 25.41427 14012 ft 276 kts 173°
2026-03-27 17:15 -20.73654 25.41623 14012 ft 276 kts 173°
2026-03-27 17:16 -20.75549 25.41822 14011 ft 276 kts 173°
2026-03-27 17:16 -20.77466 25.42012 14012 ft 276 kts 173°
2026-03-27 17:16 -20.79385 25.42199 14011 ft 276 kts 173°
2026-03-27 17:16 -20.81311 25.42397 14010 ft 276 kts 173°
2026-03-27 17:17 -20.83200 25.42591 14012 ft 277 kts 173°
2026-03-27 17:17 -20.85129 25.42782 14006 ft 277 kts 173°
2026-03-27 17:17 -20.87034 25.42971 14007 ft 277 kts 173°
2026-03-27 17:17 -20.88964 25.43170 14007 ft 277 kts 173°
2026-03-27 17:18 -20.90885 25.43365 14008 ft 277 kts 173°
2026-03-27 17:18 -20.92805 25.43554 14005 ft 277 kts 173°
2026-03-27 17:18 -20.94704 25.43747 14008 ft 276 kts 173°
2026-03-27 17:18 -20.96627 25.43944 14009 ft 276 kts 173°
2026-03-27 17:19 -20.98526 25.44134 14009 ft 276 kts 173°
2026-03-27 17:19 -21.00438 25.44326 14008 ft 276 kts 173°
2026-03-27 17:19 -21.02349 25.44520 14010 ft 276 kts 173°
2026-03-27 17:19 -21.04264 25.44715 14011 ft 275 kts 173°
2026-03-27 17:20 -21.06172 25.44906 14007 ft 275 kts 173°
2026-03-27 17:20 -21.08081 25.45099 14011 ft 275 kts 173°
2026-03-27 17:20 -21.09972 25.45292 14010 ft 275 kts 173°
2026-03-27 17:20 -21.11883 25.45485 14010 ft 274 kts 173°
2026-03-27 17:21 -21.13767 25.45674 14011 ft 274 kts 173°
2026-03-27 17:21 -21.15668 25.45867 14012 ft 274 kts 172°
2026-03-27 17:21 -21.17570 25.46061 14008 ft 274 kts 172°
2026-03-27 17:21 -21.19471 25.46252 14010 ft 274 kts 172°
2026-03-27 17:22 -21.21372 25.46445 14009 ft 273 kts 172°
2026-03-27 17:22 -21.23253 25.46637 14010 ft 274 kts 172°
2026-03-27 17:22 -21.25155 25.46830 14011 ft 274 kts 172°
2026-03-27 17:22 -21.27051 25.47020 14009 ft 274 kts 172°
2026-03-27 17:23 -21.28951 25.47214 14008 ft 273 kts 172°
2026-03-27 17:23 -21.30848 25.47407 14014 ft 274 kts 172°
2026-03-27 17:23 -21.32720 25.47596 14017 ft 274 kts 172°
2026-03-27 17:23 -21.34623 25.47789 14016 ft 274 kts 172°
2026-03-27 17:24 -21.36530 25.47984 14015 ft 274 kts 172°
2026-03-27 17:24 -21.38427 25.48176 14015 ft 274 kts 172°
2026-03-27 17:24 -21.40305 25.48366 14015 ft 274 kts 172°
2026-03-27 17:24 -21.42208 25.48560 14016 ft 274 kts 172°
2026-03-27 17:25 -21.44107 25.48753 14016 ft 274 kts 172°
2026-03-27 17:25 -21.46013 25.48946 14018 ft 274 kts 172°
2026-03-27 17:25 -21.47891 25.49137 14021 ft 274 kts 172°
2026-03-27 17:25 -21.49793 25.49332 14025 ft 274 kts 172°
2026-03-27 17:26 -21.51699 25.49526 14019 ft 275 kts 172°
2026-03-27 17:26 -21.53605 25.49719 14023 ft 275 kts 172°
2026-03-27 17:26 -21.55509 25.49913 14023 ft 275 kts 172°
2026-03-27 17:26 -21.57396 25.50105 14022 ft 275 kts 172°
2026-03-27 17:27 -21.59308 25.50300 14021 ft 274 kts 172°
2026-03-27 17:27 -21.61210 25.50493 14022 ft 274 kts 172°
2026-03-27 17:27 -21.63091 25.50685 14020 ft 274 kts 172°
2026-03-27 17:27 -21.64998 25.50880 14023 ft 274 kts 172°
2026-03-27 17:28 -21.66904 25.51074 14022 ft 274 kts 172°
2026-03-27 17:28 -21.68169 25.51203 14022 ft 274 kts 172°
2026-03-27 17:28 -21.70698 25.51461 14026 ft 274 kts 172°
2026-03-27 17:28 -21.71969 25.51591 14021 ft 274 kts 172°
2026-03-27 17:29 -21.73879 25.51786 14024 ft 275 kts 172°
2026-03-27 17:29 -21.75785 25.51980 14028 ft 275 kts 172°
2026-03-27 17:29 -21.77669 25.52173 14029 ft 275 kts 172°
2026-03-27 17:29 -21.79580 25.52368 14029 ft 274 kts 172°
2026-03-27 17:30 -21.81488 25.52562 14029 ft 275 kts 172°
2026-03-27 17:30 -21.83378 25.52756 14026 ft 275 kts 172°
2026-03-27 17:30 -21.85290 25.52951 14029 ft 275 kts 172°
2026-03-27 17:30 -21.87180 25.53144 14029 ft 275 kts 172°
2026-03-27 17:31 -21.89091 25.53340 14031 ft 275 kts 172°
2026-03-27 17:31 -21.91003 25.53535 14029 ft 275 kts 172°
2026-03-27 17:31 -21.92916 25.53731 14029 ft 275 kts 172°
2026-03-27 17:31 -21.94795 25.53923 14028 ft 274 kts 172°
2026-03-27 17:32 -21.96704 25.54119 14030 ft 274 kts 172°
2026-03-27 17:32 -21.98612 25.54314 14029 ft 274 kts 172°
2026-03-27 17:32 -22.00500 25.54508 14030 ft 275 kts 172°
2026-03-27 17:32 -22.02412 25.54704 14029 ft 274 kts 172°
2026-03-27 17:33 -22.04298 25.54897 14030 ft 274 kts 172°
2026-03-27 17:33 -22.06210 25.55093 14030 ft 274 kts 172°
2026-03-27 17:33 -22.08112 25.55288 14037 ft 274 kts 172°
2026-03-27 17:33 -22.10011 25.55483 14036 ft 274 kts 172°
2026-03-27 17:34 -22.11892 25.55676 14037 ft 274 kts 172°
2026-03-27 17:34 -22.13795 25.55871 14032 ft 274 kts 172°
2026-03-27 17:34 -22.15706 25.56067 14036 ft 274 kts 172°
2026-03-27 17:34 -22.17611 25.56263 14035 ft 274 kts 172°
2026-03-27 17:35 -22.19494 25.56456 14032 ft 274 kts 172°
2026-03-27 17:35 -22.21399 25.56652 14041 ft 274 kts 172°
2026-03-27 17:35 -22.23311 25.56848 14040 ft 274 kts 172°
2026-03-27 17:35 -22.25208 25.57043 14038 ft 274 kts 172°
2026-03-27 17:36 -22.27097 25.57238 14043 ft 274 kts 172°
2026-03-27 17:36 -22.28984 25.57432 14042 ft 274 kts 172°
2026-03-27 17:36 -22.30891 25.57628 14044 ft 274 kts 172°
2026-03-27 17:36 -22.32795 25.57824 14043 ft 274 kts 172°
2026-03-27 17:37 -22.34674 25.58017 14046 ft 274 kts 172°
2026-03-27 17:37 -22.36574 25.58213 14043 ft 274 kts 172°
2026-03-27 17:37 -22.38479 25.58409 14041 ft 274 kts 172°
2026-03-27 17:37 -22.40388 25.58605 14046 ft 274 kts 172°
2026-03-27 17:38 -22.42264 25.58799 14043 ft 274 kts 172°
2026-03-27 17:38 -22.44169 25.58996 14047 ft 274 kts 172°
2026-03-27 17:38 -22.46072 25.59192 14045 ft 274 kts 172°
2026-03-27 17:38 -22.47972 25.59387 14047 ft 274 kts 172°
2026-03-27 17:39 -22.49735 25.59569 14049 ft 274 kts 172°
2026-03-27 17:39 -22.51667 25.59769 14051 ft 274 kts 172°
2026-03-27 17:39 -22.53571 25.59966 14056 ft 274 kts 172°
2026-03-27 17:39 -22.55449 25.60159 14051 ft 274 kts 172°
2026-03-27 17:40 -22.57355 25.60356 14060 ft 274 kts 172°
2026-03-27 17:40 -22.59266 25.60554 14055 ft 274 kts 172°
2026-03-27 17:40 -22.61148 25.60748 14053 ft 274 kts 172°
2026-03-27 17:40 -22.63050 25.60945 14059 ft 274 kts 172°
2026-03-27 17:41 -22.64949 25.61141 14060 ft 274 kts 172°
2026-03-27 17:41 -22.66829 25.61336 14059 ft 274 kts 172°
2026-03-27 17:41 -22.68721 25.61531 14063 ft 274 kts 172°
2026-03-27 17:42 -22.72503 25.61923 14064 ft 273 kts 172°
2026-03-27 17:42 -22.74404 25.62119 14063 ft 273 kts 172°
2026-03-27 17:42 -22.76307 25.62316 14062 ft 273 kts 172°
2026-03-27 17:43 -22.80077 25.62708 14060 ft 273 kts 172°
2026-03-27 17:43 -22.81972 25.62903 14071 ft 273 kts 172°
2026-03-27 17:43 -22.83868 25.63100 14069 ft 273 kts 172°
2026-03-27 17:43 -22.85736 25.63294 14068 ft 273 kts 172°
2026-03-27 17:44 -22.87634 25.63491 14065 ft 273 kts 172°
2026-03-27 17:44 -22.89529 25.63687 14074 ft 273 kts 172°
2026-03-27 17:44 -22.91400 25.63881 14072 ft 273 kts 172°
2026-03-27 17:44 -22.93300 25.64079 14077 ft 273 kts 172°
2026-03-27 17:45 -22.95192 25.64275 14079 ft 273 kts 172°
2026-03-27 17:45 -22.97091 25.64472 14077 ft 273 kts 172°
2026-03-27 17:45 -22.98967 25.64667 14079 ft 273 kts 172°
2026-03-27 17:45 -23.00871 25.64866 14080 ft 273 kts 172°
2026-03-27 17:46 -23.02739 25.65060 14078 ft 273 kts 172°
2026-03-27 17:46 -23.04640 25.65257 14076 ft 273 kts 172°
2026-03-27 17:46 -23.06535 25.65455 14077 ft 273 kts 172°
2026-03-27 17:46 -23.08412 25.65650 14077 ft 273 kts 172°
2026-03-27 17:47 -23.10319 25.65848 14078 ft 273 kts 172°
2026-03-27 17:47 -23.12191 25.66043 14080 ft 273 kts 172°
2026-03-27 17:47 -23.14091 25.66241 14083 ft 273 kts 172°
2026-03-27 17:47 -23.15987 25.66439 14082 ft 273 kts 172°
2026-03-27 17:48 -23.17857 25.66634 14083 ft 273 kts 172°
2026-03-27 17:48 -23.19756 25.66831 14089 ft 273 kts 172°
2026-03-27 17:48 -23.21664 25.67030 14090 ft 273 kts 172°
2026-03-27 17:48 -23.23537 25.67226 14092 ft 273 kts 172°
2026-03-27 17:49 -23.25441 25.67424 14091 ft 273 kts 172°
2026-03-27 17:49 -23.27318 25.67620 14094 ft 273 kts 173°
2026-03-27 17:49 -23.29222 25.67819 14092 ft 273 kts 172°
2026-03-27 17:49 -23.31126 25.68017 14096 ft 273 kts 173°
2026-03-27 17:50 -23.32996 25.68213 14094 ft 273 kts 173°
2026-03-27 17:50 -23.34892 25.68411 14092 ft 273 kts 173°
2026-03-27 17:50 -23.36798 25.68610 14096 ft 273 kts 173°
2026-03-27 17:50 -23.38697 25.68809 14095 ft 273 kts 173°
2026-03-27 17:51 -23.40573 25.69005 14095 ft 273 kts 173°
2026-03-27 17:51 -23.42477 25.69204 14099 ft 273 kts 173°
2026-03-27 17:51 -23.44375 25.69403 14102 ft 273 kts 173°
2026-03-27 17:51 -23.46273 25.69601 14102 ft 273 kts 173°
2026-03-27 17:52 -23.48150 25.69812 14101 ft 273 kts 171°
2026-03-27 17:52 -23.49948 25.70467 14074 ft 271 kts 150°
2026-03-27 17:52 -23.51283 25.71854 14072 ft 268 kts 121°
2026-03-27 17:52 -23.51850 25.73777 14085 ft 267 kts 96°
2026-03-27 17:53 -23.51938 25.75772 14109 ft 267 kts 90°
2026-03-27 17:53 -23.51997 25.77815 14107 ft 267 kts 94°
2026-03-27 17:53 -23.52218 25.79807 14110 ft 267 kts 98°
2026-03-27 17:53 -23.52436 25.81838 14105 ft 267 kts 95°
2026-03-27 17:54 -23.52553 25.83846 14104 ft 268 kts 93°
2026-03-27 17:54 -23.52717 25.85882 14108 ft 268 kts 96°
2026-03-27 17:54 -23.52924 25.87874 14106 ft 268 kts 96°
2026-03-27 17:54 -23.53079 25.89898 14107 ft 268 kts 94°
2026-03-27 17:55 -23.53221 25.91913 14108 ft 267 kts 95°
2026-03-27 17:55 -23.53408 25.93930 14107 ft 268 kts 96°
2026-03-27 17:55 -23.53588 25.95958 14109 ft 268 kts 95°
2026-03-27 17:55 -23.53736 25.97985 14110 ft 268 kts 94°
2026-03-27 17:56 -23.53899 25.99991 14110 ft 268 kts 95°
2026-03-27 17:56 -23.54082 26.02020 14108 ft 268 kts 95°
2026-03-27 17:56 -23.54536 26.03964 14082 ft 269 kts 116°
2026-03-27 17:56 -23.55789 26.05472 14077 ft 271 kts 145°
2026-03-27 17:57 -23.57568 26.06121 14083 ft 274 kts 174°
2026-03-27 17:57 -23.59415 26.05757 14089 ft 276 kts 202°
2026-03-27 17:57 -23.61083 26.04712 14114 ft 277 kts 213°
2026-03-27 17:57 -23.62636 26.03455 14122 ft 277 kts 218°
2026-03-27 17:58 -23.64120 26.02101 14123 ft 278 kts 220°
2026-03-27 17:58 -23.65577 26.00710 14121 ft 278 kts 220°
2026-03-27 17:58 -23.67005 25.99323 14118 ft 278 kts 221°
2026-03-27 17:58 -23.68391 25.97846 14117 ft 278 kts 227°
2026-03-27 17:59 -23.69657 25.96242 14116 ft 278 kts 229°
2026-03-27 17:59 -23.70958 25.94714 14114 ft 278 kts 224°
2026-03-27 17:59 -23.72332 25.93208 14115 ft 278 kts 225°
2026-03-27 17:59 -23.73632 25.91643 14116 ft 278 kts 228°
2026-03-27 18:00 -23.74914 25.90102 14117 ft 278 kts 226°
2026-03-27 18:00 -23.76264 25.88581 14123 ft 278 kts 225°
2026-03-27 18:00 -23.77594 25.87037 14121 ft 278 kts 227°
2026-03-27 18:00 -23.78876 25.85495 14119 ft 278 kts 227°
2026-03-27 18:01 -23.80209 25.83947 14122 ft 278 kts 225°
2026-03-27 18:01 -23.81543 25.82417 14124 ft 278 kts 226°
2026-03-27 18:01 -23.82857 25.80863 14126 ft 278 kts 227°
2026-03-27 18:01 -23.84157 25.79325 14126 ft 278 kts 226°
2026-03-27 18:02 -23.85492 25.77782 14126 ft 278 kts 226°
2026-03-27 18:02 -23.86816 25.76240 14126 ft 278 kts 226°
2026-03-27 18:02 -23.88115 25.74701 14128 ft 278 kts 226°
2026-03-27 18:02 -23.89434 25.73155 14131 ft 278 kts 226°
2026-03-27 18:03 -23.90761 25.71615 14130 ft 278 kts 226°
2026-03-27 18:03 -23.92083 25.70062 14129 ft 278 kts 226°
2026-03-27 18:03 -23.93388 25.68522 14127 ft 278 kts 226°
2026-03-27 18:03 -23.94709 25.66978 14129 ft 278 kts 226°
2026-03-27 18:04 -23.96037 25.65426 14082 ft 280 kts 226°
2026-03-27 18:04 -23.97370 25.63858 13688 ft 288 kts 226°
2026-03-27 18:04 -23.98745 25.62237 13268 ft 290 kts 227°
2026-03-27 18:04 -24.00124 25.60619 12848 ft 290 kts 226°
2026-03-27 18:05 -24.01508 25.59006 12441 ft 291 kts 226°
2026-03-27 18:05 -24.02869 25.57406 12031 ft 288 kts 227°
2026-03-27 18:05 -24.04227 25.55797 11618 ft 286 kts 227°
2026-03-27 18:05 -24.05579 25.54208 11142 ft 281 kts 227°
2026-03-27 18:06 -24.06901 25.52662 10600 ft 276 kts 227°
2026-03-27 18:06 -24.08203 25.51127 10018 ft 275 kts 227°
2026-03-27 18:06 -24.09504 25.49589 9348 ft 275 kts 227°
2026-03-27 18:06 -24.10801 25.48066 8698 ft 275 kts 227°
2026-03-27 18:07 -24.12111 25.46529 8048 ft 275 kts 227°
2026-03-27 18:07 -24.13404 25.45000 7370 ft 276 kts 227°
2026-03-27 18:07 -24.14711 25.43455 6708 ft 276 kts 227°
2026-03-27 18:07 -24.16018 25.41917 6010 ft 276 kts 227°
2026-03-27 18:08 -24.17280 25.40360 5667 ft 266 kts 232°
2026-03-27 18:08 -24.18190 25.38690 5502 ft 252 kts 243°
2026-03-27 18:08 -24.18937 25.36982 5306 ft 243 kts 245°
2026-03-27 18:08 -24.19589 25.35333 5313 ft 230 kts 248°
2026-03-27 18:09 -24.20174 25.33732 5327 ft 221 kts 250°
2026-03-27 18:09 -24.20675 25.32180 5429 ft 211 kts 253°
2026-03-27 18:09 -24.21074 25.30678 5584 ft 200 kts 255°
2026-03-27 18:09 -24.21413 25.29229 5729 ft 192 kts 257°
2026-03-27 18:10 -24.21687 25.27850 5766 ft 184 kts 258°
2026-03-27 18:10 -24.21968 25.26513 5777 ft 177 kts 252°
2026-03-27 18:10 -24.22686 25.25423 5596 ft 181 kts 219°
2026-03-27 18:10 -24.23743 25.24925 5434 ft 153 kts 185°
2026-03-27 18:11 -24.24715 25.25152 5134 ft 145 kts 148°
2026-03-27 18:11 -24.25346 25.25996 5012 ft 143 kts 104°
2026-03-27 18:11 -24.25366 25.27065 4881 ft 138 kts 80°
2026-03-27 18:11 -24.25064 25.28029 4712 ft 129 kts 67°
2026-03-27 18:12 -24.24676 25.28876 4530 ft 125 kts 63°
2026-03-27 18:12 -24.24284 25.29756 4362 ft 130 kts 65°
2026-03-27 18:12 -24.23894 25.30643 4217 ft 126 kts 66°
2026-03-27 18:12 -24.23512 25.31511 4081 ft 127 kts 66°
2026-03-27 18:13 -24.23130 25.32382 3956 ft 129 kts 64°
2026-03-27 18:13 -24.22750 25.33259 3791 ft 123 kts 65°
2026-03-27 18:13 -24.22437 25.33968 3769 ft 75 kts 64°
2026-03-27 18:13 -24.22282 25.34315 3769 ft 32 kts 64°
2026-03-27 18:14 -24.22218 25.34466 3766 ft 14 kts 63°
2026-03-27 18:14 -24.22186 25.34539 3764 ft 8 kts 65°
2026-03-27 18:14 -24.22139 25.34642 3760 ft 13 kts 63°
2026-03-27 18:14 -24.22095 25.34739 3760 ft 23 kts 64°
2026-03-27 18:15 -24.22042 25.34866 3763 ft 21 kts 67°
2026-03-27 18:15 -24.21999 25.34969 3763 ft 10 kts 66°
2026-03-27 18:15 -24.21986 25.35019 3763 ft 8 kts 103°
2026-03-27 18:15 -24.22026 25.35057 3763 ft 14 kts 154°
2026-03-27 18:16 -24.22113 25.35095 3758 ft 19 kts 184°
2026-03-27 18:16 -24.22187 25.34983 3761 ft 17 kts 245°
2026-03-27 18:16 -24.22231 25.34876 3768 ft 14 kts 243°
2026-03-27 18:16 -24.22257 25.34836 3759 ft 0 kts 238°